Location: Columbus
(29.5618°N, 96.6770°W)
Time: 18:22:54
(UTC-05:00)

Iridium 59 - Visible Passes

Search period start: 19 April 2018 00:00
Search period end: 29 April 2018 00:00
Orbit: 776 x 779 km, 86.4° (Epoch: 19 April)

Date Brightness Start Highest point End Pass type
(mag) Time Alt. Az. Time Alt. Az. Time Alt. Az.
19 Apr 6.6 21:15:50 17° ENE 21:15:50 17° ENE 21:18:21 10° NE visible
19 Apr 6.6 22:56:16 33° WNW 22:56:16 33° WNW 23:00:00 10° NNW visible
20 Apr 5.3 22:22:11 67° NW 22:22:11 67° NW 22:26:52 10° N visible
21 Apr 5.0 21:48:04 55° E 21:48:11 55° E 21:53:16 10° NNE visible
21 Apr 7.7 23:28:30 11° W 23:29:10 12° WNW 23:30:57 10° WNW visible
22 Apr 5.9 21:13:54 26° ESE 21:14:49 28° E 21:19:11 10° NNE visible
22 Apr 6.9 22:54:19 22° W 22:55:24 24° W 22:59:33 10° NNW visible
23 Apr 6.7 20:39:40 12° ESE 20:41:34 14° E 20:44:06 10° NE visible
23 Apr 5.8 22:20:04 35° SW 22:21:46 47° W 22:26:47 10° NNW visible
24 Apr 4.9 21:45:46 32° S 21:48:14 85° E 21:53:27 10° N visible
25 Apr 5.4 21:11:22 18° SSE 21:14:48 42° E 21:19:41 10° NNE visible
25 Apr 7.6 22:52:33 10° WSW 22:55:37 16° W 22:58:42 10° NW visible
26 Apr 6.3 20:37:39 10° SE 20:41:28 21° E 20:45:18 10° NE visible
26 Apr 6.7 22:17:20 10° SW 22:21:54 31° W 22:26:30 10° NNW visible
27 Apr 5.4 21:43:10 10° SSW 21:48:18 63° W 21:53:29 10° N visible
28 Apr 5.0 21:09:41 10° S 21:14:49 65° E 21:19:58 10° N visible
